| time (UTC) | temp F | wind direction | speed MPH | gust MPH | rain 1hr in | rain 24hr in | rain mn in | humidity % | barometer mb |
| 20260504194530 | 70 | 214 | 8.0 | 19.0 | 0.00 | 0.00 | 0.00 | 36 | 1006.6 |
| 20260504194003 | 71 | 172 | 9.0 | 18.0 | 0.00 | 0.00 | 0.00 | 35 | 1006.5 |
| 20260504193503 | 72 | 226 | 6.0 | 13.0 | 0.00 | 0.00 | 0.00 | 35 | 1006.5 |
| 20260504193007 | 71 | 219 | 5.0 | 13.0 | 0.00 | 0.00 | 0.00 | 36 | 1006.4 |
| 20260504192502 | 71 | 104 | 4.0 | 13.0 | 0.00 | 0.00 | 0.00 | 35 | 1006.5 |
| 20260504192007 | 71 | 248 | 4.0 | 12.0 | 0.00 | 0.00 | 0.00 | 36 | 1006.6 |
| 20260504191511 | 70 | 169 | 5.0 | 17.0 | 0.00 | 0.00 | 0.00 | 38 | 1006.5 |
| 20260504191006 | 70 | 281 | 4.0 | 17.0 | 0.00 | 0.00 | 0.00 | 37 | 1006.5 |
| 20260504190505 | 69 | 175 | 5.0 | 18.0 | 0.00 | 0.00 | 0.00 | 38 | 1006.5 |
| 20260504190014 | 70 | 214 | 8.0 | 18.0 | 0.00 | 0.00 | 0.00 | 36 | 1006.5 |
| 20260504185506 | 69 | 193 | 6.0 | 16.0 | 0.00 | 0.00 | 0.00 | 37 | 1006.5 |
| 20260504185007 | 69 | 237 | 7.0 | 16.0 | 0.00 | 0.00 | 0.00 | 38 | 1006.6 |
| 20260504184520 | 69 | 160 | 8.0 | 13.0 | 0.00 | 0.00 | 0.00 | 36 | 1006.6 |
| 20260504184009 | 69 | 179 | 8.0 | 14.0 | 0.00 | 0.00 | 0.00 | 35 | 1006.7 |
| 20260504183509 | 70 | 223 | 7.0 | 14.0 | 0.00 | 0.00 | 0.00 | 35 | 1006.6 |
| 20260504183025 | 70 | 23 | 3.0 | 19.0 | 0.00 | 0.00 | 0.00 | 36 | 1006.6 |
| 20260504182503 | 70 | 257 | 7.0 | 19.0 | 0.00 | 0.00 | 0.00 | 34 | 1006.7 |
| 20260504182003 | 70 | 214 | 6.0 | 16.0 | 0.00 | 0.00 | 0.00 | 35 | 1006.8 |
| 20260504181513 | 70 | 212 | 8.0 | 16.0 | 0.00 | 0.00 | 0.00 | 36 | 1007.0 |
| 20260504181006 | 69 | 240 | 1.0 | 12.0 | 0.00 | 0.00 | 0.00 | 37 | 1006.8 |
| 20260504180504 | 70 | 271 | 6.0 | 12.0 | 0.00 | 0.00 | 0.00 | 36 | 1007.0 |
| 20260504180009 | 70 | 230 | 3.0 | 11.0 | 0.00 | 0.00 | 0.00 | 34 | 1006.9 |
| 20260504175504 | 69 | 189 | 4.0 | 12.0 | 0.00 | 0.00 | 0.00 | 36 | 1007.1 |
| 20260504175005 | 69 | 318 | 5.0 | 13.0 | 0.00 | 0.00 | 0.00 | 36 | 1007.1 |
| 20260504174516 | 68 | 298 | 5.0 | 13.0 | 0.00 | 0.00 | 0.00 | 37 | 1007.2 |
| 20260504174007 | 68 | 221 | 5.0 | 17.0 | 0.00 | 0.00 | 0.00 | 37 | 1007.2 |
| 20260504173506 | 68 | 56 | 7.0 | 17.0 | 0.00 | 0.00 | 0.00 | 36 | 1007.3 |
| 20260504173023 | 68 | 234 | 3.0 | 14.0 | 0.00 | 0.00 | 0.00 | 36 | 1007.3 |
| 20260504172505 | 67 | 185 | 4.0 | 14.0 | 0.00 | 0.00 | 0.00 | 38 | 1007.3 |
| 20260504172009 | 67 | 259 | 7.0 | 14.0 | 0.00 | 0.00 | 0.00 | 36 | 1007.3 |
| 20260504171529 | 67 | 219 | 2.0 | 13.0 | 0.00 | 0.00 | 0.00 | 36 | 1007.2 |
| 20260504171003 | 68 | 243 | 6.0 | 18.0 | 0.00 | 0.00 | 0.00 | 34 | 1007.4 |
| 20260504170502 | 69 | 272 | 5.0 | 19.0 | 0.00 | 0.00 | 0.00 | 36 | 1007.4 |
| 20260504151007 | 65 | 214 | 10.0 | 20.0 | 0.00 | 0.00 | 0.00 | 39 | 1008.5 |
| 20260504150511 | 65 | 206 | 7.0 | 15.0 | 0.00 | 0.00 | 0.00 | 39 | 1008.6 |
| 20260504141002 | 61 | 205 | 8.0 | 16.0 | 0.00 | 0.00 | 0.00 | 46 | 1009.3 |
| 20260504140502 | 61 | 211 | 7.0 | 12.0 | 0.00 | 0.00 | 0.00 | 46 | 1009.3 |
| 20260504130508 | 55 | 124 | 2.0 | 8.0 | 0.00 | 0.00 | 0.00 | 56 | 1009.8 |
| 20260504110506 | 45 | 238 | 5.0 | 11.0 | 0.00 | 0.00 | 0.00 | 67 | 1010.8 |
| 20260504100504 | 37 | 222 | 0.0 | 1.0 | 0.00 | 0.00 | 0.00 | 84 | 1010.3 |
| 20260504082007 | 40 | 219 | 0.0 | 1.0 | 0.00 | 0.00 | 0.00 | 79 | 1010.0 |
| 20260504081520 | 40 | 220 | 0.0 | 1.0 | 0.00 | 0.00 | 0.00 | 78 | 1010.0 |
| 20260504081013 | 40 | 220 | 0.0 | 1.0 | 0.00 | 0.00 | 0.00 | 78 | 1009.9 |
| 20260504080507 | 40 | 220 | 0.0 | 2.0 | 0.00 | 0.00 | 0.00 | 79 | 1010.0 |
| 20260504050508 | 39 | 54 | 0.0 | 0.0 | 0.00 | 0.00 | 0.00 | 83 | 1010.3 |
| 20260504050015 | 39 | 55 | 0.0 | 0.0 | 0.00 | 0.00 | 0.00 | 83 | 1010.4 |
| 20260504045502 | 38 | 335 | 0.0 | 0.0 | 0.00 | 0.00 | 0.00 | 83 | 1010.4 |
| 20260504045004 | 38 | 326 | 0.0 | 0.0 | 0.00 | 0.00 | 0.00 | 83 | 1010.6 |
| 20260504044504 | 38 | 326 | 0.0 | 0.0 | 0.00 | 0.00 | 0.00 | 83 | 1010.5 |
| 20260504044005 | 38 | 326 | 0.0 | 0.0 | 0.00 | 0.00 | 0.00 | 84 | 1010.4 |
| 20260504043503 | 38 | 326 | 0.0 | 0.0 | 0.00 | 0.00 | 0.00 | 83 | 1010.4 |
| 20260504043007 | 37 | 326 | 0.0 | 0.0 | 0.00 | 0.00 | 0.00 | 83 | 1010.4 |
| 20260504042505 | 37 | 326 | 0.0 | 0.0 | 0.00 | 0.00 | 0.00 | 83 | 1010.5 |
| 20260504042004 | 37 | 326 | 0.0 | 0.0 | 0.00 | 0.00 | 0.00 | 82 | 1010.4 |
| 20260504041510 | 37 | 326 | 0.0 | 0.0 | 0.00 | 0.00 | 0.00 | 81 | 1010.4 |
| 20260504041002 | 37 | 326 | 0.0 | 0.0 | 0.00 | 0.00 | 0.00 | 82 | 1010.4 |
| 20260504040502 | 37 | 326 | 0.0 | 0.0 | 0.00 | 0.00 | 0.00 | 82 | 1010.3 |
| 20260504040034 | 37 | 326 | 0.0 | 0.0 | 0.00 | 0.00 | 0.00 | 83 | 1010.3 |
| 20260504035508 | 36 | 326 | 0.0 | 0.0 | 0.00 | 0.00 | 0.00 | 83 | 1010.3 |
| 20260504035008 | 36 | 326 | 0.0 | 0.0 | 0.00 | 0.00 | 0.00 | 82 | 1010.3 |
| 20260504034523 | 36 | 326 | 0.0 | 0.0 | 0.00 | 0.00 | 0.00 | 82 | 1010.2 |
| 20260504034007 | 36 | 326 | 0.0 | 0.0 | 0.00 | 0.00 | 0.00 | 82 | 1010.2 |
| 20260504033503 | 36 | 326 | 0.0 | 0.0 | 0.00 | 0.00 | 0.00 | 83 | 1010.2 |
| 20260504033006 | 35 | 326 | 0.0 | 0.0 | 0.00 | 0.00 | 0.00 | 83 | 1010.1 |
| 20260504032503 | 35 | 326 | 0.0 | 0.0 | 0.00 | 0.00 | 0.00 | 83 | 1010.1 |
| 20260504032003 | 35 | 326 | 0.0 | 0.0 | 0.00 | 0.00 | 0.00 | 83 | 1010.1 |
| 20260504031507 | 35 | 326 | 0.0 | 0.0 | 0.00 | 0.00 | 0.00 | 82 | 1010.1 |
| 20260504031004 | 35 | 326 | 0.0 | 0.0 | 0.00 | 0.00 | 0.00 | 82 | 1010.1 |
| 20260504030504 | 35 | 326 | 0.0 | 0.0 | 0.00 | 0.00 | 0.00 | 81 | 1010.1 |
| 20260504030010 | 35 | 326 | 0.0 | 0.0 | 0.00 | 0.00 | 0.00 | 81 | 1010.1 |
| 20260504025504 | 35 | 326 | 0.0 | 0.0 | 0.00 | 0.00 | 0.00 | 81 | 1010.0 |
| 20260504025009 | 35 | 325 | 0.0 | 0.0 | 0.00 | 0.00 | 0.00 | 81 | 1010.1 |
| 20260504024516 | 35 | 321 | 0.0 | 0.0 | 0.00 | 0.00 | 0.00 | 81 | 1010.0 |
| 20260504024008 | 35 | 321 | 0.0 | 0.0 | 0.00 | 0.00 | 0.00 | 81 | 1010.1 |
| 20260504023509 | 35 | 319 | 0.0 | 0.0 | 0.00 | 0.00 | 0.00 | 80 | 1010.0 |
| 20260504023019 | 36 | 319 | 0.0 | 0.0 | 0.00 | 0.00 | 0.00 | 80 | 1010.0 |
| 20260504022506 | 36 | 319 | 0.0 | 0.0 | 0.00 | 0.00 | 0.00 | 80 | 1010.0 |
| 20260504022009 | 36 | 319 | 0.0 | 0.0 | 0.00 | 0.00 | 0.00 | 79 | 1009.9 |
| 20260504021504 | 36 | 319 | 0.0 | 0.0 | 0.00 | 0.00 | 0.00 | 78 | 1009.8 |
| 20260504021003 | 36 | 319 | 0.0 | 0.0 | 0.00 | 0.00 | 0.00 | 78 | 1009.7 |
| 20260504020504 | 36 | 319 | 0.0 | 0.0 | 0.00 | 0.00 | 0.00 | 77 | 1009.7 |
| 20260504020008 | 37 | 319 | 0.0 | 0.0 | 0.00 | 0.00 | 0.00 | 77 | 1009.6 |
| 20260504015504 | 37 | 319 | 0.0 | 0.0 | 0.00 | 0.00 | 0.00 | 76 | 1009.6 |
| 20260504015007 | 37 | 319 | 0.0 | 0.0 | 0.00 | 0.00 | 0.00 | 76 | 1009.6 |
| 20260504014521 | 37 | 319 | 0.0 | 0.0 | 0.00 | 0.00 | 0.00 | 75 | 1009.6 |
| 20260504014003 | 37 | 319 | 0.0 | 0.0 | 0.00 | 0.00 | 0.00 | 74 | 1009.5 |
| 20260504013506 | 38 | 319 | 0.0 | 0.0 | 0.00 | 0.00 | 0.00 | 74 | 1009.5 |
| 20260504013019 | 38 | 319 | 0.0 | 0.0 | 0.00 | 0.00 | 0.00 | 74 | 1009.5 |
| 20260504012507 | 38 | 319 | 0.0 | 0.0 | 0.00 | 0.00 | 0.00 | 74 | 1009.4 |
| 20260504012008 | 38 | 319 | 0.0 | 0.0 | 0.00 | 0.00 | 0.00 | 74 | 1009.4 |
| 20260504011523 | 38 | 319 | 0.0 | 0.0 | 0.00 | 0.00 | 0.00 | 74 | 1009.3 |
| 20260504011010 | 39 | 319 | 0.0 | 0.0 | 0.00 | 0.00 | 0.00 | 73 | 1009.3 |
| 20260504010507 | 39 | 319 | 0.0 | 0.0 | 0.00 | 0.00 | 0.00 | 72 | 1009.1 |
| 20260504010024 | 39 | 319 | 0.0 | 0.0 | 0.00 | 0.00 | 0.00 | 73 | 1009.0 |
| 20260504005504 | 40 | 313 | 0.0 | 0.0 | 0.00 | 0.00 | 0.00 | 72 | 1008.9 |
| 20260504005003 | 40 | 313 | 0.0 | 0.0 | 0.00 | 0.00 | 0.00 | 71 | 1008.9 |
| 20260504004511 | 40 | 311 | 0.0 | 0.0 | 0.00 | 0.00 | 0.00 | 69 | 1008.8 |
| 20260504004002 | 41 | 311 | 0.0 | 0.0 | 0.00 | 0.00 | 0.00 | 69 | 1008.7 |
| 20260504003507 | 41 | 311 | 0.0 | 0.0 | 0.00 | 0.00 | 0.00 | 68 | 1008.7 |
| 20260504003012 | 42 | 311 | 0.0 | 0.0 | 0.00 | 0.00 | 0.00 | 66 | 1008.7 |
| 20260504002504 | 42 | 312 | 0.0 | 0.0 | 0.00 | 0.00 | 0.00 | 67 | 1008.6 |
| 20260504002008 | 42 | 311 | 0.0 | 0.0 | 0.00 | 0.00 | 0.00 | 66 | 1008.6 |
| 20260504001518 | 43 | 312 | 0.0 | 0.0 | 0.00 | 0.00 | 0.00 | 65 | 1008.5 |
| 20260504001008 | 44 | 312 | 0.0 | 0.0 | 0.00 | 0.00 | 0.00 | 64 | 1008.4 |
| 20260504000506 | 44 | 312 | 0.0 | 0.0 | 0.00 | 0.00 | 0.00 | 61 | 1008.4 |
| 20260504000024 | 45 | 312 | 0.0 | 0.0 | 0.00 | 0.00 | 0.00 | 60 | 1008.3 |
| 20260503235507 | 46 | 312 | 0.0 | 0.0 | 0.00 | 0.00 | 0.00 | 60 | 1008.3 |
| 20260503235007 | 46 | 312 | 0.0 | 0.0 | 0.00 | 0.00 | 0.00 | 58 | 1008.3 |
| 20260503234524 | 47 | 312 | 0.0 | 0.0 | 0.00 | 0.00 | 0.00 | 57 | 1008.3 |
| 20260503234004 | 48 | 264 | 0.0 | 1.0 | 0.00 | 0.00 | 0.00 | 50 | 1008.2 |
| 20260503233503 | 49 | 233 | 0.0 | 1.0 | 0.00 | 0.00 | 0.00 | 49 | 1008.2 |
| 20260503233009 | 50 | 280 | 0.0 | 1.0 | 0.00 | 0.00 | 0.00 | 49 | 1008.2 |
| 20260503232507 | 50 | 280 | 0.0 | 2.0 | 0.00 | 0.00 | 0.00 | 48 | 1008.2 |
| 20260503232007 | 51 | 58 | 0.0 | 2.0 | 0.00 | 0.00 | 0.00 | 44 | 1008.2 |
| 20260503231516 | 51 | 338 | 0.0 | 4.0 | 0.00 | 0.00 | 0.00 | 43 | 1008.1 |
| 20260503231008 | 52 | 347 | 0.0 | 4.0 | 0.00 | 0.00 | 0.00 | 43 | 1008.1 |
| 20260503230508 | 52 | 3 | 0.0 | 4.0 | 0.00 | 0.00 | 0.00 | 43 | 1008.0 |
| 20260503230021 | 52 | 26 | 1.0 | 3.0 | 0.00 | 0.00 | 0.00 | 41 | 1008.1 |
| 20260503225506 | 53 | 358 | 0.0 | 4.0 | 0.00 | 0.00 | 0.00 | 43 | 1008.1 |
| 20260503225012 | 53 | 342 | 3.0 | 5.0 | 0.00 | 0.00 | 0.00 | 42 | 1008.0 |
| 20260503224524 | 53 | 328 | 1.0 | 6.0 | 0.00 | 0.00 | 0.00 | 40 | 1008.1 |
| 20260503224007 | 53 | 309 | 2.0 | 7.0 | 0.00 | 0.00 | 0.00 | 39 | 1008.0 |
| 20260503223508 | 53 | 341 | 2.0 | 7.0 | 0.00 | 0.00 | 0.00 | 40 | 1008.1 |
| 20260503223028 | 52 | 8 | 1.0 | 5.0 | 0.00 | 0.00 | 0.00 | 43 | 1008.1 |
| 20260503222508 | 52 | 353 | 1.0 | 7.0 | 0.00 | 0.00 | 0.00 | 42 | 1008.2 |
| 20260503222004 | 52 | 326 | 2.0 | 7.0 | 0.00 | 0.00 | 0.00 | 43 | 1008.1 |
| 20260503221511 | 52 | 300 | 3.0 | 6.0 | 0.00 | 0.00 | 0.00 | 41 | 1008.1 |
| 20260503221006 | 52 | 354 | 1.0 | 4.0 | 0.00 | 0.00 | 0.00 | 44 | 1008.1 |
| 20260503220504 | 52 | 290 | 2.0 | 7.0 | 0.00 | 0.00 | 0.00 | 41 | 1008.1 |
| 20260503220017 | 52 | 321 | 4.0 | 7.0 | 0.00 | 0.00 | 0.00 | 42 | 1008.2 |
| 20260503215509 | 51 | 315 | 2.0 | 5.0 | 0.00 | 0.00 | 0.00 | 44 | 1008.1 |
| 20260503215011 | 51 | 326 | 2.0 | 5.0 | 0.00 | 0.00 | 0.00 | 43 | 1008.1 |
| 20260503214522 | 52 | 291 | 2.0 | 7.0 | 0.00 | 0.00 | 0.00 | 43 | 1008.2 |
| 20260503214008 | 52 | 322 | 2.0 | 7.0 | 0.00 | 0.00 | 0.00 | 41 | 1008.2 |
| 20260503213511 | 52 | 6 | 2.0 | 6.0 | 0.00 | 0.00 | 0.00 | 41 | 1008.1 |
| 20260503213024 | 52 | 267 | 2.0 | 5.0 | 0.00 | 0.00 | 0.00 | 40 | 1008.2 |
| 20260503212509 | 52 | 274 | 1.0 | 5.0 | 0.00 | 0.00 | 0.00 | 41 | 1008.1 |
| 20260503212009 | 52 | 293 | 1.0 | 5.0 | 0.00 | 0.00 | 0.00 | 42 | 1008.1 |
| 20260503211528 | 53 | 283 | 1.0 | 5.0 | 0.00 | 0.00 | 0.00 | 41 | 1008.0 |
| 20260503211011 | 53 | 311 | 2.0 | 10.0 | 0.00 | 0.00 | 0.00 | 40 | 1008.0 |
| 20260503210506 | 53 | 321 | 3.0 | 16.0 | 0.00 | 0.00 | 0.00 | 38 | 1008.0 |
| 20260503210015 | 53 | 347 | 7.0 | 16.0 | 0.00 | 0.00 | 0.00 | 39 | 1007.9 |
| 20260503205510 | 54 | 350 | 7.0 | 16.0 | 0.00 | 0.00 | 0.00 | 39 | 1008.0 |
| 20260503205007 | 53 | 274 | 3.0 | 10.0 | 0.00 | 0.00 | 0.00 | 41 | 1007.8 |
| 20260503204526 | 53 | 352 | 5.0 | 10.0 | 0.00 | 0.00 | 0.00 | 40 | 1007.9 |
| 20260503204012 | 52 | 332 | 3.0 | 9.0 | 0.00 | 0.00 | 0.00 | 39 | 1008.0 |
| 20260503203507 | 53 | 304 | 3.0 | 11.0 | 0.00 | 0.00 | 0.00 | 40 | 1007.9 |
| 20260503203024 | 53 | 12 | 6.0 | 11.0 | 0.00 | 0.00 | 0.00 | 41 | 1007.8 |
| 20260503202507 | 54 | 352 | 2.0 | 15.0 | 0.00 | 0.00 | 0.00 | 42 | 1007.8 |
| 20260503202005 | 53 | 335 | 5.0 | 15.0 | 0.00 | 0.00 | 0.00 | 42 | 1007.8 |
| 20260503201506 | 52 | 343 | 7.0 | 15.0 | 0.00 | 0.00 | 0.00 | 43 | 1007.8 |
| 20260503201004 | 51 | 353 | 3.0 | 11.0 | 0.00 | 0.00 | 0.00 | 44 | 1007.8 |
| 20260503200505 | 51 | 1 | 5.0 | 11.0 | 0.00 | 0.00 | 0.00 | 42 | 1007.9 |
| 20260503200012 | 51 | 328 | 2.0 | 13.0 | 0.00 | 0.00 | 0.00 | 44 | 1007.9 |
| 20260503195506 | 51 | 300 | 4.0 | 13.0 | 0.00 | 0.00 | 0.00 | 44 | 1007.9 |
| 20260503195005 | 51 | 4 | 7.0 | 15.0 | 0.00 | 0.00 | 0.00 | 42 | 1008.0 |